2023-07-07 11:27:29, 101, 3.98, 13.98
2023-07-07 11:30:10, 101, 3.91, 14.27
2023-07-07 11:35:10, 101, 3.91, 14.95
2023-07-07 11:40:10, 101, 3.91, 16.08
2023-07-07 11:45:10, 101, 3.91, 16.24
2023-07-07 11:50:10, 101, 3.91, 16.75
2023-07-07 11:55:11, 101, 3.9, 15.64
2023-07-07 12:00:10, 101, 3.9, 14.78
2023-07-07 12:05:14, 101, 3.91, 14.16
2023-07-07 12:10:10, 101, 3.9, 13.78
2023-07-07 12:15:10, 101, 3.91, 13.64
2023-07-07 12:20:11, 101, 3.9, 13.47
2023-07-07 12:25:10, 101, 3.91, 13.38
2023-07-07 12:30:10, 101, 3.9, 13.23
2023-07-07 12:35:10, 101, 3.9, 13.11
2023-07-07 12:40:10, 101, 3.91, 13.15
2023-07-07 12:45:10, 101, 3.92, 13.18
2023-07-07 12:50:10, 101, 3.9, 13.22
2023-07-07 12:55:10, 101, 3.9, 13.31
2023-07-07 13:00:10, 101, 3.91, 13.3
2023-07-07 13:05:10, 101, 3.91, 13.39
2023-07-07 15:00:10, 101, 3.92, 12.33
2023-07-07 18:00:10, 101, 3.93, 10.69
2023-07-07 21:00:11, 101, 3.94, 8.61
2023-07-08 00:00:10, 101, 3.94, 8.26
2023-07-08 03:00:10, 101, 3.93, 7.55
2023-07-08 06:00:10, 101, 3.94, 7.71
2023-07-08 09:00:10, 101, 3.95, 8.83
2023-07-08 12:00:10, 101, 3.98, 11.46
2023-07-08 15:00:10, 101, 3.99, 11.66
2023-07-08 18:00:10, 101, 4.01, 11.78
2023-07-08 21:00:10, 101, 4.01, 11.03
2023-07-09 00:00:11, 101, 4.0, 10.12
2023-07-09 00:00:11, 101, 4.0, 10.12
2023-07-09 00:00:11, 101, 4.0, 10.12
2023-07-09 03:00:10, 101, 4.0, 8.49
2023-07-09 03:00:10, 101, 4.0, 8.49
2023-07-09 06:00:10, 101, 4.01, 8.79
2023-07-09 06:00:10, 101, 4.01, 8.79
2023-07-09 09:00:10, 101, 4.03, 14.38
2023-07-09 12:00:10, 101, 4.03, 23.02
2023-07-09 14:00:08, 101, 4.12, 22.9
2023-07-09 15:00:10, 101, 4.04, 18.24
2023-07-09 18:00:10, 101, 4.06, 16.73
2023-07-09 21:00:10, 101, 4.06, 13.52
2023-07-10 00:00:10, 101, 4.06, 10.95
2023-07-10 03:00:10, 101, 4.06, 9.74
2023-07-10 06:00:10, 101, 4.06, 9.47
2023-07-10 09:00:11, 101, 4.07, 11.61
2023-07-10 11:58:03, 101, 4.13, 13.88
2023-07-10 12:00:07, 101, 4.14, 14.46
2023-07-10 12:01:54, 101, 4.13, 14.51
2023-07-10 12:02:39, 101, 4.14, 14.48
2023-07-10 12:04:45, 101, 4.14, 14.37
2023-07-10 12:30:10, 101, 4.07, 13.72
2023-07-10 12:33:34, 101, 4.14, 14.24
2023-07-10 12:36:27, 101, 4.15, 14.34
2023-07-10 12:36:58, 101, 4.15, 14.34
2023-07-10 12:37:32, 101, 4.15, 14.37
2023-07-10 12:37:32, 101, 4.15, 14.37
2023-07-10 12:40:56, 101, 4.14, 14.91
2023-07-10 12:40:56, 101, 4.14, 14.91
2023-07-10 12:44:20, 101, 4.14, 15.24
2023-07-10 12:44:20, 101, 4.14, 15.24
2023-07-10 12:45:03, 101, 4.14, 15.3
2023-07-10 12:45:03, 101, 4.14, 15.3
2023-07-10 12:45:38, 101, 4.15, 15.31
2023-07-10 15:30:10, 101, 4.07, 15.16
2023-07-10 18:30:13, 101, 4.06, 13.21
2023-07-10 21:30:10, 101, 4.06, 11.59
2023-07-11 00:30:10, 101, 4.06, 8.09
2023-07-11 03:30:10, 101, 4.06, 7.65
2023-07-11 03:30:10, 101, 4.06, 7.65
2023-07-11 03:30:10, 101, 4.06, 7.65
2023-07-11 06:30:10, 101, 4.06, 9.98
2023-07-11 06:30:10, 101, 4.06, 9.98
2023-07-11 06:30:10, 101, 4.06, 9.98
2023-07-11 09:30:10, 101, 4.06, 13.88
2023-07-11 09:30:10, 101, 4.06, 13.88
2023-07-11 09:30:10, 101, 4.06, 13.88
2023-07-11 12:30:10, 101, 4.06, 22.92
2023-07-11 15:30:09, 101, 4.07, 18.25
2023-07-11 18:30:09, 101, 4.06, 19.94
2023-07-11 21:30:09, 101, 4.07, 12.59
2023-07-12 00:30:09, 101, 4.06, 9.73
2023-07-12 03:30:10, 101, 4.05, 8.46
2023-07-12 06:30:11, 101, 4.06, 9.87
2023-07-12 09:30:10, 101, 4.05, 13.81
2023-07-12 12:30:10, 101, 4.06, 21.16
2023-07-12 12:30:10, 101, 4.06, 21.16
2023-07-12 15:30:10, 101, 4.08, 23.07
2023-07-12 18:30:10, 101, 4.07, 16.9
2023-07-12 21:30:10, 101, 4.07, 12.79
2023-07-13 00:30:10, 101, 4.05, 10.05
2023-07-13 03:30:10, 101, 4.05, 9.16
2023-07-13 06:30:10, 101, 4.06, 8.85
2023-07-13 09:30:10, 101, 4.07, 14.11
2023-07-13 12:30:10, 101, 4.06, 24.27
2023-07-13 15:30:10, 101, 4.08, 23.7
2023-07-13 18:30:10, 101, 4.07, 18.21
2023-07-13 21:30:10, 101, 4.06, 14.02
2023-07-14 00:30:10, 101, 4.05, 10.99
2023-07-14 03:30:10, 101, 4.05, 9.26
2023-07-14 06:30:10, 101, 4.06, 10.11
2023-07-14 09:30:10, 101, 4.07, 14.37
2023-07-14 12:30:10, 101, 4.06, 16.98
2023-07-14 15:30:11, 101, 4.06, 15.36
2023-07-14 15:30:11, 101, 4.06, 15.36
2023-07-14 18:30:10, 101, 4.07, 15.03
2023-07-14 18:30:10, 101, 4.07, 15.03
2023-07-14 21:30:10, 101, 4.07, 11.41
2023-07-14 21:30:10, 101, 4.07, 11.41
2023-07-14 21:32:24, 101, 4.06, 11.52
2023-07-15 00:30:10, 101, 4.06, 9.63
2023-07-15 03:30:10, 101, 4.07, 8.73
2023-07-15 06:30:10, 101, 4.06, 8.33
2023-07-15 09:30:11, 101, 4.07, 9.18
2023-07-15 12:30:10, 101, 4.06, 12.38
2023-07-15 15:30:10, 101, 4.06, 13.29
2023-07-15 18:30:10, 101, 4.07, 13.91
2023-07-15 21:30:10, 101, 4.07, 10.91
2023-07-16 00:30:10, 101, 4.07, 9.34
2023-07-16 03:30:10, 101, 4.06, 9.14
2023-07-16 06:30:10, 101, 4.07, 9.69
2023-07-16 09:30:10, 101, 4.07, 11.51
2023-07-16 12:30:10, 101, 4.06, 14.02
2023-07-16 15:30:11, 101, 4.07, 19.23
2023-07-16 18:30:10, 101, 4.06, 15.53
2023-07-16 21:30:10, 101, 4.06, 11.54
2023-07-17 00:30:11, 101, 4.06, 10.12
2023-07-17 03:30:10, 101, 4.05, 9.48
2023-07-17 06:30:10, 101, 4.07, 10.07
2023-07-17 09:30:10, 101, 4.07, 14.84
2023-07-17 12:30:10, 101, 4.07, 23.51
2023-07-17 15:30:10, 101, 4.07, 25.77
2023-07-17 18:30:10, 101, 4.06, 22.04
2023-07-17 21:30:10, 101, 4.06, 14.88
2023-07-17 21:30:50, 101, 4.06, 14.92
2023-07-17 21:32:03, 101, 4.06, 14.96
2023-07-18 00:30:11, 101, 4.06, 11.51
2023-07-18 03:30:10, 101, 4.06, 9.38
2023-07-18 03:30:10, 101, 4.06, 9.38
2023-07-18 03:30:10, 101, 4.06, 9.38
2023-07-18 06:30:10, 101, 4.07, 10.48
2023-07-18 06:30:10, 101, 4.07, 10.48
2023-07-18 06:30:10, 101, 4.07, 10.48
2023-07-18 09:30:09, 101, 4.07, 13.46
2023-07-18 09:30:09, 101, 4.07, 13.46
2023-07-18 09:30:09, 101, 4.07, 13.46
2023-07-18 12:30:09, 101, 4.06, 19.9
2023-07-18 15:30:09, 101, 4.06, 20.45
2023-07-18 18:30:10, 101, 4.07, 17.77
2023-07-18 21:30:10, 101, 4.07, 13.99
2023-07-18 21:31:23, 101, 4.07, 14.07
2023-07-19 00:30:11, 101, 4.05, 9.97
2023-07-19 03:30:10, 101, 4.06, 9.11
2023-07-19 06:30:10, 101, 4.05, 9.21
2023-07-19 09:30:10, 101, 4.07, 15.32
2023-07-19 12:30:11, 101, 4.06, 20.05
2023-07-19 15:30:10, 101, 4.06, 22.96
2023-07-19 18:30:10, 101, 4.08, 19.44
2023-07-19 21:30:10, 101, 4.07, 14.66
2023-07-20 00:30:10, 101, 4.06, 11.21
2023-07-20 03:30:10, 101, 4.06, 9.8
2023-07-20 06:30:10, 101, 4.07, 10.12
2023-07-20 09:30:11, 101, 4.06, 11.39
2023-07-20 12:30:10, 101, 4.07, 15.96
2023-07-20 15:30:10, 101, 4.06, 20.16
2023-07-20 18:30:10, 101, 4.07, 15.78
2023-07-20 21:30:10, 101, 4.07, 11.92
2023-07-21 00:30:10, 101, 4.05, 10.01
2023-07-21 03:30:10, 101, 4.07, 9.25
2023-07-21 06:30:10, 101, 4.06, 9.25
2023-07-21 09:30:10, 101, 4.07, 10.82
2023-07-21 12:30:10, 101, 4.07, 12.14
2023-07-21 15:30:10, 101, 4.07, 14.88
2023-07-21 18:30:10, 101, 4.07, 13.03
2023-07-21 21:30:11, 101, 4.07, 11.47
2023-07-21 21:31:11, 101, 4.07, 11.51
2023-07-22 00:30:10, 101, 4.06, 9.62
2023-07-22 03:30:10, 101, 4.05, 8.75
2023-07-22 06:30:11, 101, 4.06, 8.86
2023-07-22 09:30:10, 101, 4.06, 14.16
2023-07-22 12:30:10, 101, 4.07, 18.91
2023-07-22 15:30:11, 101, 4.06, 18.62
2023-07-22 18:30:10, 101, 4.07, 15.64
2023-07-22 21:30:10, 101, 4.06, 11.97
2023-07-23 00:30:10, 101, 4.06, 9.0
2023-07-23 03:30:10, 101, 4.06, 8.48
2023-07-23 06:30:10, 101, 4.07, 9.02
2023-07-23 09:30:10, 101, 4.06, 14.35
2023-07-23 12:30:10, 101, 4.07, 19.23
2023-07-23 15:30:10, 101, 4.07, 21.77
2023-07-23 18:30:10, 101, 4.07, 18.12
2023-07-23 21:30:10, 101, 4.06, 11.75
2023-07-24 00:30:10, 101, 4.06, 9.51
2023-07-24 03:30:10, 101, 4.05, 8.6
2023-07-24 03:30:10, 101, 4.05, 8.6
2023-07-24 06:30:10, 101, 4.06, 8.66
2023-07-24 06:30:10, 101, 4.06, 8.66
2023-07-24 09:30:11, 101, 4.06, 11.55
2023-07-24 09:30:11, 101, 4.06, 11.55
2023-07-24 12:30:10, 101, 4.06, 14.0
2023-07-24 15:30:10, 101, 4.07, 14.01
2023-07-24 18:30:11, 101, 4.07, 11.37
2023-07-24 21:30:10, 101, 4.06, 9.51
2023-07-25 00:30:11, 101, 4.06, 8.55
2023-07-25 03:30:09, 101, 4.05, 8.05
2023-07-25 06:30:09, 101, 4.06, 8.05
2023-07-25 09:30:09, 101, 4.06, 9.09
2023-07-25 12:30:09, 101, 4.06, 10.04
2023-07-25 15:30:09, 101, 4.06, 10.61
2023-07-25 18:30:09, 101, 4.07, 11.22
2023-07-25 21:30:09, 101, 4.06, 9.02
2023-07-26 00:30:09, 101, 4.05, 7.89
2023-07-26 03:30:10, 101, 4.05, 7.27
2023-07-26 06:30:09, 101, 4.06, 7.13
2023-07-26 09:30:09, 101, 4.07, 8.3
2023-07-26 12:30:10, 101, 4.06, 9.48
2023-07-26 15:30:10, 101, 4.07, 9.51
2023-07-26 18:30:10, 101, 4.06, 9.59
2023-07-26 21:30:10, 101, 4.07, 8.14
2023-07-27 00:30:10, 101, 4.05, 7.42
2023-07-27 03:30:10, 101, 4.06, 6.88
2023-07-27 06:30:10, 101, 4.06, 7.12
2023-07-27 09:30:10, 101, 4.06, 10.47
2023-07-27 12:30:10, 101, 4.06, 12.39
2023-07-27 15:30:10, 101, 4.08, 12.55
2023-07-27 18:30:10, 101, 4.06, 10.58
2023-07-27 21:30:09, 101, 4.07, 8.74
2023-07-28 00:30:09, 101, 4.05, 7.6
2023-07-28 03:30:10, 101, 4.06, 6.18
2023-07-28 06:30:10, 101, 4.07, 7.15
2023-07-28 09:30:10, 101, 4.07, 12.36
2023-07-28 12:30:10, 101, 4.06, 14.5
2023-07-28 15:30:10, 101, 4.06, 14.3
2023-07-28 18:30:10, 101, 4.08, 12.59
2023-07-28 21:30:10, 101, 4.06, 10.87
2023-07-29 00:30:10, 101, 4.06, 8.7
2023-07-29 03:30:10, 101, 4.05, 7.92
2023-07-29 06:30:10, 101, 4.06, 8.01
2023-07-29 09:30:10, 101, 4.07, 9.59
2023-07-29 12:30:10, 101, 4.07, 10.71
2023-07-29 15:30:11, 101, 4.07, 13.44
2023-07-29 18:30:10, 101, 4.07, 11.08
2023-07-29 21:30:10, 101, 4.06, 9.0
2023-07-30 00:30:10, 101, 4.06, 8.01
2023-07-30 00:30:10, 101, 4.06, 8.01
2023-07-30 03:30:10, 101, 4.07, 7.51
2023-07-30 06:30:10, 101, 4.06, 7.85
2023-07-30 09:30:11, 101, 4.06, 11.78
2023-07-30 12:30:10, 101, 4.07, 15.48
2023-07-30 15:30:10, 101, 4.07, 12.77
2023-07-30 18:30:10, 101, 4.06, 10.46
2023-07-30 21:30:10, 101, 4.06, 8.48
2023-07-30 21:30:10, 101, 4.06, 8.48
2023-07-31 00:30:10, 101, 4.06, 7.69
2023-07-31 00:30:10, 101, 4.06, 7.69
2023-07-31 03:30:10, 101, 4.06, 7.53
2023-07-31 06:30:10, 101, 4.06, 8.01
2023-07-31 09:30:11, 101, 4.06, 11.41
2023-07-31 12:30:10, 101, 4.06, 23.2
2023-07-31 15:30:10, 101, 4.07, 15.82
2023-07-31 18:30:10, 101, 4.06, 15.26
2023-07-31 21:30:10, 101, 4.06, 11.03
2023-08-01 00:30:10, 101, 4.06, 8.98
2023-08-01 03:30:10, 101, 4.06, 8.18
2023-08-01 06:30:10, 101, 4.06, 8.12
2023-08-01 09:30:10, 101, 4.07, 12.46
2023-08-01 12:30:10, 101, 4.06, 22.56
2023-08-01 15:30:10, 101, 4.07, 24.68
2023-08-01 18:30:10, 101, 4.07, 16.44
2023-08-01 21:30:10, 101, 4.06, 12.47
2023-08-01 21:32:30, 101, 4.06, 12.55
2023-08-02 00:30:10, 101, 4.06, 10.21
2023-08-02 03:30:10, 101, 4.05, 8.98
2023-08-02 06:30:10, 101, 4.06, 9.52
2023-08-02 09:30:10, 101, 4.07, 12.36
2023-08-02 12:30:10, 101, 4.07, 16.31
2023-08-02 15:30:10, 101, 4.07, 22.6
2023-08-02 18:30:10, 101, 4.06, 17.6
2023-08-02 21:30:10, 101, 4.06, 12.42
2023-08-02 21:30:55, 101, 4.06, 12.46
2023-08-03 00:30:10, 101, 4.07, 10.08
2023-08-03 03:30:10, 101, 4.05, 8.54
2023-08-03 06:30:11, 101, 4.07, 8.87
2023-08-03 09:30:10, 101, 4.07, 12.91
2023-08-03 12:30:10, 101, 4.06, 15.84
2023-08-03 15:30:11, 101, 4.05, 17.04
2023-08-03 18:30:10, 101, 4.06, 18.3
2023-08-03 21:30:10, 101, 4.05, 11.95
2023-08-04 00:30:10, 101, 4.06, 8.77
2023-08-04 03:30:10, 101, 4.05, 9.12
2023-08-04 06:30:10, 101, 4.06, 8.48
2023-08-04 09:30:10, 101, 4.06, 11.08
2023-08-04 12:30:10, 101, 4.07, 20.98
2023-08-04 15:30:10, 101, 4.06, 18.65
2023-08-04 18:30:11, 101, 4.07, 16.52
2023-08-04 21:30:10, 101, 4.07, 11.36
2023-08-05 00:30:10, 101, 4.06, 8.12
2023-08-05 03:30:10, 101, 4.05, 7.71
2023-08-05 06:30:10, 101, 4.08, 7.73
2023-08-05 09:30:10, 101, 4.06, 12.95
2023-08-05 12:30:10, 101, 4.07, 23.2
2023-08-05 15:30:09, 101, 4.07, 18.93
2023-08-05 18:30:10, 101, 4.07, 14.7
2023-08-05 21:30:10, 101, 4.06, 11.2
2023-08-06 00:30:10, 101, 4.05, 8.86
2023-08-06 03:30:10, 101, 4.06, 7.97
2023-08-06 06:30:10, 101, 4.06, 8.72
2023-08-06 09:30:10, 101, 4.06, 12.4
2023-08-06 12:30:10, 101, 4.06, 16.77
2023-08-06 15:30:10, 101, 4.06, 14.65
2023-08-06 18:30:10, 101, 4.06, 10.84
2023-08-06 21:30:11, 101, 4.07, 8.75
2023-08-06 21:30:48, 101, 4.06, 8.79
2023-08-06 21:33:25, 101, 4.06, 8.88
2023-08-07 00:30:10, 101, 4.05, 8.0
2023-08-07 03:30:10, 101, 4.05, 7.12
2023-08-07 03:30:10, 101, 4.05, 7.12
2023-08-07 03:30:10, 101, 4.05, 7.12
2023-08-07 06:30:10, 101, 4.06, 7.74
2023-08-07 06:30:10, 101, 4.06, 7.74
2023-08-07 06:30:10, 101, 4.06, 7.74
2023-08-07 09:30:10, 101, 4.06, 11.35
2023-08-07 09:30:10, 101, 4.06, 11.35
2023-08-07 09:30:10, 101, 4.06, 11.35
2023-08-07 12:30:10, 101, 4.06, 11.38
2023-08-07 15:30:11, 101, 4.06, 10.05
2023-08-07 18:30:10, 101, 4.06, 9.93
2023-08-07 21:30:10, 101, 4.07, 8.37
2023-08-08 00:30:10, 101, 4.06, 7.19
2023-08-08 03:30:10, 101, 4.06, 5.46
2023-08-08 06:30:10, 101, 4.05, 5.19
2023-08-08 09:30:10, 101, 4.06, 10.35
2023-08-08 12:30:11, 101, 4.06, 20.38
2023-08-08 15:30:10, 101, 4.08, 20.98
2023-08-08 18:30:09, 101, 4.07, 15.74
2023-08-08 21:30:09, 101, 4.06, 12.4
2023-08-09 00:30:09, 101, 4.06, 9.82
2023-08-09 03:30:10, 101, 4.06, 7.13
2023-08-09 06:30:10, 101, 4.06, 7.41
2023-08-09 09:30:10, 101, 4.06, 12.38
2023-08-09 12:30:10, 101, 4.06, 21.77
2023-08-09 15:30:10, 101, 4.07, 22.94
2023-08-09 15:30:10, 101, 4.07, 22.94
2023-08-09 18:30:09, 101, 4.07, 20.31
2023-08-09 18:30:09, 101, 4.07, 20.31
2023-08-09 21:30:09, 101, 4.06, 13.33
2023-08-09 21:30:09, 101, 4.06, 13.33
2023-08-10 00:30:11, 101, 4.06, 11.0
2023-08-10 03:30:10, 101, 4.05, 9.7
2023-08-10 06:30:10, 101, 4.06, 9.83
2023-08-10 09:30:10, 101, 4.07, 11.11
2023-08-10 12:30:10, 101, 4.06, 14.05
2023-08-10 15:30:10, 101, 4.07, 19.74
2023-08-10 15:30:10, 101, 4.07, 19.74
2023-08-10 15:30:10, 101, 4.07, 19.74
2023-08-10 18:30:09, 101, 4.06, 16.98
2023-08-10 18:30:09, 101, 4.06, 16.98
2023-08-10 18:30:09, 101, 4.06, 16.98
2023-08-10 21:30:09, 101, 4.06, 11.73
2023-08-10 21:30:09, 101, 4.06, 11.73
2023-08-10 21:30:09, 101, 4.06, 11.73
2023-08-11 00:30:09, 101, 4.06, 9.85
2023-08-11 03:30:09, 101, 4.05, 9.05
2023-08-11 06:30:09, 101, 4.07, 9.38
2023-08-11 09:30:09, 101, 4.06, 9.81
2023-08-11 12:30:10, 101, 4.07, 10.88
2023-08-11 15:30:09, 101, 4.07, 13.02
2023-08-11 18:30:09, 101, 4.06, 10.56
2023-08-11 21:30:09, 101, 4.06, 9.14
2023-08-12 00:30:09, 101, 4.06, 8.15
2023-08-12 03:30:09, 101, 4.06, 6.86
2023-08-12 06:30:09, 101, 4.06, 7.24
2023-08-12 09:30:10, 101, 4.06, 8.88
2023-08-12 12:30:10, 101, 4.06, 9.91
2023-08-12 15:30:10, 101, 4.07, 9.63
2023-08-12 18:30:10, 101, 4.07, 9.38
2023-08-12 21:30:11, 101, 4.05, 7.68
2023-08-12 21:30:42, 101, 4.06, 7.71
2023-08-12 21:32:35, 101, 4.06, 7.78
2023-08-12 21:32:35, 101, 4.06, 7.78
2023-08-13 00:30:10, 101, 4.05, 6.92
2023-08-13 00:30:10, 101, 4.05, 6.92
2023-08-13 03:30:10, 101, 4.07, 7.24
2023-08-13 06:30:10, 101, 4.06, 6.8
2023-08-13 09:30:10, 101, 4.06, 11.26
2023-08-13 12:30:09, 101, 4.07, 17.91
2023-08-13 15:30:09, 101, 4.07, 16.71
2023-08-13 18:30:09, 101, 4.07, 16.13
2023-08-13 21:30:09, 101, 4.06, 10.31
2023-08-14 00:30:09, 101, 4.06, 8.44
2023-08-14 03:30:09, 101, 4.06, 7.48
2023-08-14 03:30:09, 101, 4.06, 7.48
2023-08-14 03:30:09, 101, 4.06, 7.48
2023-08-14 06:30:09, 101, 4.06, 7.89
2023-08-14 06:30:09, 101, 4.06, 7.89
2023-08-14 06:30:09, 101, 4.06, 7.89
2023-08-14 09:30:09, 101, 4.06, 11.68
2023-08-14 09:30:09, 101, 4.06, 11.68
2023-08-14 09:30:09, 101, 4.06, 11.68
2023-08-14 12:30:10, 101, 4.07, 22.75
2023-08-14 15:30:09, 101, 4.08, 20.09
2023-08-14 18:30:09, 101, 4.06, 15.35
2023-08-14 21:30:11, 101, 4.06, 11.55
2023-08-15 00:30:11, 101, 4.06, 8.33
2023-08-15 03:30:10, 101, 4.06, 7.12
2023-08-15 06:30:10, 101, 4.05, 6.69
2023-08-15 09:30:10, 101, 4.06, 11.58
2023-08-15 12:30:09, 101, 4.06, 22.77
2023-08-15 15:30:09, 101, 4.07, 24.16
2023-08-15 18:30:09, 101, 4.06, 18.68
2023-08-15 21:30:09, 101, 4.06, 12.57
2023-08-16 00:30:09, 101, 4.05, 9.55
2023-08-16 03:30:09, 101, 4.06, 8.1
2023-08-16 06:30:10, 101, 4.06, 7.65
2023-08-16 09:30:10, 101, 4.06, 12.6
2023-08-16 12:30:10, 101, 4.06, 21.76
2023-08-16 15:30:10, 101, 4.07, 24.34
2023-08-16 18:30:10, 101, 4.07, 17.45
2023-08-16 21:30:10, 101, 4.06, 12.13
2023-08-17 00:30:10, 101, 4.06, 9.79
2023-08-17 03:30:10, 101, 4.06, 9.04
2023-08-17 06:30:10, 101, 4.06, 9.11
2023-08-17 09:30:10, 101, 4.06, 12.05
2023-08-17 12:30:10, 101, 4.06, 16.2
2023-08-17 15:30:10, 101, 4.07, 15.27
2023-08-17 18:30:10, 101, 4.07, 11.7
2023-08-17 21:30:10, 101, 4.06, 9.53
2023-08-17 21:31:15, 101, 4.05, 9.62
2023-08-18 00:30:10, 101, 4.07, 8.98
2023-08-18 03:30:10, 101, 4.06, 8.84
2023-08-18 06:30:10, 101, 4.06, 9.41
2023-08-18 09:30:11, 101, 4.06, 9.41
2023-08-18 12:30:10, 101, 4.06, 9.09
2023-08-18 15:30:10, 101, 4.06, 9.19
2023-08-18 18:30:10, 101, 4.06, 9.19
2023-08-18 21:30:10, 101, 4.06, 8.74
2023-08-19 00:30:10, 101, 4.06, 8.09
2023-08-19 03:30:10, 101, 4.06, 7.93
2023-08-19 06:30:10, 101, 4.06, 8.01
2023-08-19 09:30:10, 101, 4.06, 9.92
2023-08-19 12:30:10, 101, 4.06, 11.81
2023-08-19 15:30:10, 101, 4.07, 13.23
2023-08-19 18:30:10, 101, 4.08, 13.46
2023-08-19 21:30:10, 101, 4.06, 10.98
2023-08-20 00:30:10, 101, 4.05, 9.97
2023-08-20 03:30:10, 101, 4.06, 9.64
2023-08-20 03:30:10, 101, 4.06, 9.64
2023-08-20 03:30:10, 101, 4.06, 9.64
2023-08-20 06:30:10, 101, 4.06, 7.8
2023-08-20 06:30:10, 101, 4.06, 7.8
2023-08-20 06:30:10, 101, 4.06, 7.8
2023-08-20 09:30:10, 101, 4.07, 12.48
2023-08-20 09:30:10, 101, 4.07, 12.48
2023-08-20 09:30:10, 101, 4.07, 12.48
2023-08-20 12:30:10, 101, 4.06, 19.26
2023-08-20 15:30:10, 101, 4.07, 18.29
2023-08-20 18:30:10, 101, 4.07, 15.48
2023-08-20 21:30:10, 101, 4.07, 10.7
2023-08-21 00:30:10, 101, 4.06, 9.71
2023-08-21 03:30:10, 101, 4.06, 8.06
2023-08-21 06:30:11, 101, 4.06, 8.7
2023-08-21 09:30:10, 101, 4.06, 12.8
2023-08-21 12:30:10, 101, 4.06, 13.06
2023-08-21 15:30:10, 101, 4.06, 13.01
2023-08-21 18:30:10, 101, 4.07, 13.52
2023-08-21 21:30:10, 101, 4.06, 9.96
2023-08-21 21:32:24, 101, 4.06, 10.08
2023-08-22 00:30:10, 101, 4.06, 7.66
2023-08-22 03:30:10, 101, 4.06, 6.8
2023-08-22 06:30:10, 101, 4.05, 7.8
2023-08-22 09:30:10, 101, 4.06, 8.44
2023-08-22 12:30:10, 101, 4.06, 12.23
2023-08-22 15:30:10, 101, 4.08, 17.2
2023-08-22 18:30:12, 101, 4.07, 13.41
2023-08-22 21:30:11, 101, 4.06, 11.79
2023-08-23 00:30:10, 101, 4.06, 10.91
2023-08-23 00:30:10, 101, 4.06, 10.91
2023-08-23 00:30:10, 101, 4.06, 10.91
2023-08-23 03:30:10, 101, 4.06, 9.34
2023-08-23 06:30:10, 101, 4.05, 9.05
2023-08-23 09:30:10, 101, 4.06, 12.41
2023-08-23 12:30:10, 101, 4.07, 21.95
2023-08-23 15:30:10, 101, 4.08, 22.27
2023-08-23 18:30:10, 101, 4.07, 17.54
2023-08-23 21:30:12, 101, 4.06, 11.76
2023-08-23 21:31:28, 101, 4.06, 11.8
2023-08-24 00:30:10, 101, 4.06, 10.52
2023-08-24 03:30:11, 101, 4.06, 8.54
2023-08-24 06:30:10, 101, 4.06, 7.7
2023-08-24 09:30:10, 101, 4.05, 11.49
2023-08-24 12:30:10, 101, 4.06, 17.1
2023-08-24 15:30:10, 101, 4.08, 18.6
2023-08-24 18:30:09, 101, 4.07, 15.22
2023-08-24 21:30:09, 101, 4.05, 9.66
2023-08-24 21:32:17, 101, 4.06, 9.75
2023-08-25 00:30:10, 101, 4.07, 8.34
2023-08-25 03:30:09, 101, 4.05, 7.08
2023-08-25 06:30:10, 101, 4.05, 6.43
2023-08-25 09:30:10, 101, 4.06, 10.3
2023-08-25 12:30:10, 101, 4.07, 22.2
2023-08-25 15:30:10, 101, 4.06, 22.58
2023-08-25 18:30:10, 101, 4.07, 19.45
2023-08-25 21:30:10, 101, 4.06, 11.2
2023-08-25 21:31:47, 101, 4.06, 11.26
2023-08-26 00:30:10, 101, 4.06, 8.84
2023-08-26 03:30:10, 101, 4.06, 8.32
2023-08-26 06:30:10, 101, 4.07, 8.49
2023-08-26 09:30:10, 101, 4.06, 9.66
2023-08-26 12:30:10, 101, 4.06, 12.29
2023-08-26 15:30:10, 101, 4.08, 13.91
2023-08-26 15:30:10, 101, 4.08, 13.91
2023-08-26 18:30:10, 101, 4.06, 10.84
2023-08-26 18:30:10, 101, 4.06, 10.84
2023-08-26 21:30:11, 101, 4.06, 8.68
2023-08-26 21:30:11, 101, 4.06, 8.68
2023-08-26 21:32:09, 101, 4.06, 8.82
2023-08-26 21:32:09, 101, 4.06, 8.82
2023-08-26 21:32:09, 101, 4.06, 8.82
2023-08-26 21:34:23, 101, 4.06, 8.88
2023-08-26 21:34:23, 101, 4.06, 8.88
2023-08-26 21:34:23, 101, 4.06, 8.88
2023-08-26 21:35:45, 101, 4.06, 8.91
2023-08-26 21:35:45, 101, 4.06, 8.91
2023-08-26 21:35:45, 101, 4.06, 8.91
2023-08-27 00:30:10, 101, 4.06, 8.22
2023-08-27 03:30:10, 101, 4.06, 7.91
2023-08-27 03:30:10, 101, 4.06, 7.91
2023-08-27 06:30:10, 101, 4.05, 6.93
2023-08-27 06:30:10, 101, 4.05, 6.93
2023-08-27 09:30:10, 101, 4.06, 10.65
2023-08-27 09:30:10, 101, 4.06, 10.65
2023-08-27 12:30:10, 101, 4.06, 21.12
2023-08-27 15:30:10, 101, 4.06, 16.84
2023-08-27 18:30:10, 101, 4.07, 14.2
2023-08-27 21:30:10, 101, 4.07, 10.72
2023-08-28 00:30:10, 101, 4.07, 9.62
2023-08-28 00:30:10, 101, 4.07, 9.62
2023-08-28 03:30:10, 101, 4.06, 8.46
2023-08-28 03:30:10, 101, 4.06, 8.46
2023-08-28 06:30:10, 101, 4.06, 7.94
2023-08-28 06:30:10, 101, 4.06, 7.94
2023-08-28 09:30:10, 101, 4.07, 8.18
2023-08-28 09:30:10, 101, 4.07, 8.18
2023-08-28 12:30:10, 101, 4.07, 8.66
2023-08-28 15:30:10, 101, 4.05, 11.06
2023-08-28 18:30:11, 101, 4.07, 10.49
2023-08-28 21:30:10, 101, 4.06, 8.08
2023-08-28 21:30:53, 101, 4.06, 8.12
2023-08-29 00:30:10, 101, 4.06, 6.86
2023-08-29 03:30:10, 101, 4.05, 6.77
2023-08-29 06:30:10, 101, 4.06, 6.3
2023-08-29 09:30:10, 101, 4.07, 8.88
2023-08-29 12:30:10, 101, 4.06, 10.84
2023-08-29 15:30:10, 101, 4.06, 10.83
2023-08-29 18:30:10, 101, 4.07, 9.12
2023-08-29 21:30:10, 101, 4.07, 7.69
2023-08-30 00:30:10, 101, 4.06, 6.39
2023-08-30 00:30:10, 101, 4.06, 6.39
2023-08-30 00:30:10, 101, 4.06, 6.39
2023-08-30 03:30:10, 101, 4.06, 5.43
2023-08-30 06:30:10, 101, 4.06, 4.99
2023-08-30 09:30:10, 101, 4.05, 8.78
2023-08-30 12:30:10, 101, 4.06, 17.46
